FW5431 Weather Reports


Display with metric or nautical units.
time (UTC)temp
F
wind
direction
speed
MPH
gust
MPH
rain 1hr
in
rain 24hr
in
rain mn
in
humidity
%
barometer
mb
20260901204611 70 250 0.0 2.0 0.00 0.68 0.00 100 1010.7
20260901203101 72 250 1.0 4.0 0.00 0.68 0.00 100 1010.5
20260901201559 74 32 1.0 3.0 0.00 0.68 0.00 100 1010.3
20260901200117 74 33 0.0 3.0 0.00 0.68 0.00 100 1010.2
20260901200002 74 33 0.0 3.0 0.00 0.68 0.00 100 1010.2
20260901194609 74 33 0.0 6.0 0.00 0.73 0.00 100 1010.0
20260901193059 73 45 1.0 7.0 0.00 0.73 0.00 100 1009.7
20260901191635 74 25 2.0 10.0 0.00 0.73 0.00 100 1009.5
20260901190106 74 74 3.0 6.0 0.00 0.73 0.00 100 1009.2
20260901190003 74 53 3.0 6.0 0.00 0.73 0.00 100 1009.2
20260901184557 76 94 3.0 7.0 0.00 0.77 0.00 100 1008.9
20260901183101 77 30 1.0 5.0 0.00 0.77 0.00 100 1008.7
20260901181616 77 18 1.0 5.0 0.00 0.77 0.00 100 1008.4
20260901180057 76 1 1.0 2.0 0.00 0.77 0.00 100 1008.3
20260901174557 74 1 1.0 3.0 0.00 0.86 0.00 100 1008.3
20260901173059 74 117 1.0 3.0 0.00 0.86 0.00 100 1008.4
20260901171604 74 91 0.0 4.0 0.00 0.86 0.00 100 1008.3
20260901170101 74 96 1.0 3.0 0.00 0.86 0.00 100 1008.4
20260901164617 74 150 1.0 5.0 0.00 0.93 0.00 100 1008.5
20260901163057 75 82 1.0 4.0 0.00 0.93 0.00 100 1008.5
20260901161558 74 82 1.0 4.0 0.00 0.93 0.00 100 1008.6
20260901160110 75 80 3.0 8.0 0.00 0.93 0.00 100 1008.7
20260901154558 75 86 3.0 5.0 0.00 0.94 0.00 100 1009.0
20260901153112 74 120 2.0 7.0 0.00 0.94 0.00 100 1008.9
20260901151557 74 18 2.0 7.0 0.00 0.94 0.00 100 1008.9
20260901150111 74 49 3.0 6.0 0.00 0.94 0.00 100 1008.7
20260901144600 74 72 3.0 7.0 0.00 0.96 0.00 100 1008.8
20260901143118 72 304 1.0 6.0 0.00 0.96 0.00 100 1008.7
20260901141607 73 103 4.0 8.0 0.00 0.96 0.00 100 1008.7
20260901140132 74 22 1.0 3.0 0.00 0.96 0.00 100 1009.0
20260901134557 72 17 2.0 4.0 0.00 1.08 0.00 100 1008.9
20260901133057 71 236 1.0 2.0 0.00 1.08 0.00 100 1008.8
20260901131559 70 235 0.0 5.0 0.00 1.08 0.00 100 1008.8
20260901130058 69 128 0.0 4.0 0.00 1.08 0.00 100 1008.9
20260901124558 68 115 1.0 5.0 0.00 1.42 0.00 100 1008.8
20260901123057 66 94 1.0 3.0 0.00 1.42 0.00 100 1008.2
20260901121604 65 95 2.0 4.0 0.00 1.42 0.00 100 1008.3
20260901120057 65 63 3.0 5.0 0.00 1.42 0.00 100 1008.4
20260901114557 64 63 1.0 4.0 0.00 1.72 0.00 100 1008.2
20260901113103 64 53 1.0 5.0 0.00 1.72 0.00 100 1008.1
20260901111557 64 62 1.0 5.0 0.00 1.72 0.00 100 1007.8
20260901110058 63 114 3.0 6.0 0.00 1.72 0.00 100 1007.5
20260901104602 63 84 3.0 6.0 0.00 2.04 0.00 100 1007.3
20260901103057 63 77 2.0 4.0 0.00 2.04 0.00 100 1007.0
20260901101606 63 58 0.0 2.0 0.00 2.04 0.00 100 1006.7
20260901100059 63 56 1.0 4.0 0.00 2.04 0.00 100 1007.3
20260901094557 63 71 1.0 5.0 0.00 2.04 0.00 100 1007.4
20260901093107 63 88 3.0 7.0 0.00 2.04 0.00 100 1007.1
20260901091559 63 56 1.0 6.0 0.00 2.04 0.00 100 1007.0
20260901090057 63 84 2.0 4.0 0.00 2.04 0.00 100 1006.8
20260901084557 62 15 0.0 4.0 0.00 2.04 0.00 100 1006.6
20260901083057 62 62 2.0 4.0 0.00 2.04 0.00 100 1006.6
20260901081602 63 52 3.0 5.0 0.00 2.04 0.00 100 1006.2
20260901080156 63 46 2.0 4.0 0.00 2.04 0.00 100 1006.1
20260901074556 63 59 1.0 4.0 0.00 2.04 0.00 100 1006.1
20260901073057 63 113 1.0 2.0 0.00 2.04 0.00 100 1006.0
20260901071557 63 113 1.0 2.0 0.00 2.04 0.00 100 1006.0
20260901070116 63 113 2.0 4.0 0.00 2.04 0.00 100 1005.9
20260901064607 63 81 2.0 3.0 0.00 2.04 0.00 100 1005.5
20260901063102 63 165 0.0 2.0 0.00 2.04 0.00 100 1005.8
20260901061607 63 165 0.0 3.0 0.00 2.04 0.00 100 1006.0
20260901060057 63 165 0.0 2.0 0.00 2.04 0.00 100 1006.4
20260901054557 63 165 0.0 1.0 0.00 2.06 0.00 100 1006.8
20260901053108 64 165 0.0 2.0 0.00 2.06 0.00 100 1007.0
20260901051559 64 288 0.0 2.0 0.00 2.06 0.00 100 1007.3
20260901050057 64 288 0.0 1.0 0.00 2.06 0.00 100 1007.4
20260901044615 64 288 0.0 0.0 0.00 2.09 0.00 100 1007.3
20260901043057 64 288 0.0 3.0 0.00 2.09 0.00 100 1007.8
20260901041557 64 281 1.0 4.0 0.00 2.09 0.00 100 1008.1
20260901040104 64 230 1.0 4.0 0.00 2.09 0.00 100 1008.5
20260901040002 64 286 1.0 3.0 0.00 2.09 0.00 100 1008.5
20260901034558 64 275 0.0 3.0 0.01 2.21 0.00 100 1008.2
20260901033058 64 271 2.0 5.0 0.01 2.21 0.00 100 1008.4
20260901031559 64 269 2.0 4.0 0.01 2.21 0.00 100 1007.9
20260901030058 64 18 1.0 4.0 0.01 2.21 0.00 100 1007.1
20260901030003 64 276 0.0 5.0 0.01 2.21 0.00 100 1007.3
20260901024602 64 72 3.0 5.0 0.00 2.21 2.20 100 1008.6
20260901023057 64 75 0.0 4.0 0.00 2.21 2.20 100 1009.2
20260901021610 64 75 1.0 4.0 0.01 2.21 2.20 100 1010.9
20260901020057 64 120 0.0 2.0 0.03 2.21 2.20 100 1011.5
20260901020001 64 120 0.0 1.0 0.03 2.21 2.20 100 1011.5
20260901014558 65 120 0.0 1.0 0.04 2.21 2.20 100 1012.1
20260901013118 65 120 1.0 3.0 0.06 2.21 2.20 100 1012.3
20260901011600 65 91 2.0 3.0 0.13 2.20 2.19 100 1012.1
20260901010058 65 91 1.0 2.0 0.16 2.18 2.17 100 1012.1
20260901010001 65 91 1.0 2.0 0.16 2.18 2.17 100 1012.1
20260901004558 65 90 0.0 5.0 0.18 2.18 2.16 100 1012.0
20260901003058 65 290 0.0 4.0 0.19 2.16 2.14 100 1012.1
20260901001605 65 271 1.0 2.0 0.15 2.08 2.06 100 1012.0
20260901000058 65 272 1.0 3.0 0.14 2.02 2.00 100 1011.8
20260901000001 65 272 1.0 3.0 0.14 2.02 2.00 100 1011.8
20260831234559 65 273 0.0 2.0 0.18 2.25 1.98 100 1011.1
20260831233058 65 271 0.0 1.0 0.21 2.22 1.95 100 1010.6
20260831231614 65 271 0.0 1.0 0.18 2.18 1.91 100 1010.8
20260831230101 65 271 0.0 1.0 0.14 2.14 1.87 100 1011.0
20260831224632 65 270 0.0 4.0 0.06 2.06 1.79 100 1011.0
20260831223058 65 204 1.0 2.0 0.00 2.00 1.73 100 1010.7
20260831221608 65 79 0.0 2.0 0.00 2.00 1.73 100 1009.8
20260831220058 65 79 0.0 2.0 0.01 2.00 1.73 100 1009.8
20260831220001 65 79 0.0 2.0 0.02 2.00 1.73 100 1009.8
20260831214603 65 79 0.0 2.0 0.05 2.08 1.73 100 1009.8
20260831213058 65 79 1.0 4.0 0.10 2.08 1.73 100 1009.1
20260831211608 65 1 1.0 4.0 0.15 2.08 1.73 100 1008.9
20260831210004 65 91 2.0 3.0 0.17 2.06 1.71 100 1008.1